EA1IOS-11 Weather Reports


time (UTC)temp
C
wind
direction
speed
KPH
gust
KPH
rain 1hr
cm
rain 24hr
cm
rain mn
cm
humidity
%
barometer
mb
20260507062543 11 232 3.2 6.4 0.00 0.00 0.00 89 1012.9
20260507061539 11 238 3.2 6.4 0.00 0.00 0.00 89 1012.8
20260507060529 11 106 0.0 3.2 0.00 0.00 0.00 89 1012.8
20260507055520 11 158 0.0 3.2 0.00 0.00 0.00 90 1012.6
20260507054517 11 225 1.6 3.2 0.00 0.00 0.00 90 1012.6
20260507053530 11 233 1.6 3.2 0.00 0.00 0.00 90 1012.6
20260507052527 11 248 1.6 3.2 0.00 0.00 0.00 90 1012.6
20260507051522 11 133 1.6 3.2 0.00 0.00 0.00 90 1012.6
20260507050518 11 0.0 3.2 0.00 0.00 0.00 89 1012.5
20260507045529 11 135 1.6 3.2 0.00 0.00 0.00 89 1012.6
20260507044526 11 117 1.6 3.2 0.00 0.00 0.00 89 1012.6
20260507043521 11 0.0 3.2 0.00 0.00 0.00 88 1012.7
20260507042617 11 113 1.6 3.2 0.00 0.00 0.00 88 1012.8
20260507041607 11 126 1.6 3.2 0.00 0.00 0.00 88 1012.9
20260507040625 12 150 0.0 3.2 0.00 0.00 0.00 87 1012.9
20260507035618 12 158 0.0 3.2 0.00 0.00 0.00 87 1012.9
20260507034615 12 0.0 3.2 0.00 0.00 0.00 87 1013.1
20260507033551 12 248 0.0 3.2 0.00 0.00 0.00 87 1013.1
20260507032546 11 0.0 3.2 0.00 0.00 0.00 87 1013.1
20260507031542 12 270 0.0 3.2 0.00 0.00 0.00 86 1013.2
20260507030539 12 93 3.2 6.4 0.00 0.00 0.00 86 1013.2
20260507025533 12 0.0 3.2 0.00 0.00 0.00 86 1013.2
20260507024529 12 266 1.6 3.2 0.00 0.00 0.00 86 1013.3
20260507023524 12 0.0 3.2 0.00 0.00 0.00 85 1013.4
20260507022541 12 0.0 3.2 0.00 0.00 0.00 85 1013.3
20260507021612 12 90 0.0 3.2 0.00 0.00 0.00 86 1013.5
20260507020607 12 293 0.0 3.2 0.00 0.00 0.00 86 1013.5
20260507015603 12 48 0.0 3.2 0.00 0.00 0.00 86 1013.7
20260507014558 12 135 0.0 3.2 0.00 0.00 0.00 86 1013.7
20260507013554 12 86 1.6 3.2 0.00 0.00 0.00 87 1013.7
20260507012551 12 293 0.0 3.2 0.00 0.00 0.00 87 1013.7
20260507011545 12 86 1.6 3.2 0.00 0.00 0.00 87 1013.9
20260507010541 12 0.0 3.2 0.00 0.00 0.00 87 1013.9
20260507005535 12 26 1.6 3.2 0.00 0.00 0.00 87 1014.0
20260507004531 12 72 1.6 3.2 0.00 0.00 0.00 88 1014.1
20260507003527 12 72 1.6 3.2 0.00 0.00 0.00 88 1014.3
20260507002523 12 315 0.0 3.2 0.00 0.00 0.00 88 1014.4
20260507001538 12 0.0 3.2 0.00 0.00 0.00 87 1014.4
20260507000609 12 90 0.0 3.2 0.00 0.00 0.00 87 1014.4
20260506235605 12 90 1.6 3.2 0.00 0.00 0.00 86 1014.6
20260506234600 12 101 1.6 3.2 0.00 0.00 0.00 86 1014.6
20260506233557 13 255 3.2 3.2 0.00 0.00 0.00 86 1014.8
20260506232552 13 280 0.0 3.2 0.00 0.00 0.00 85 1014.7
20260506231548 13 88 1.6 3.2 0.00 0.00 0.00 85 1014.7
20260506230544 13 89 1.6 3.2 0.00 0.00 0.00 84 1014.7
20260506225540 13 45 0.0 3.2 0.00 0.00 0.00 84 1014.7
20260506224534 13 0.0 3.2 0.00 0.00 0.00 84 1014.6
20260506223530 13 256 1.6 3.2 0.00 0.00 0.00 84 1014.8
20260506222527 13 248 0.0 3.2 0.00 0.00 0.00 85 1015.0
20260506221523 13 248 0.0 3.2 0.00 0.00 0.00 85 1015.1
20260506220519 13 248 4.8 6.4 0.00 0.00 0.00 85 1015.1
20260506215019 13 0.0 3.2 0.00 0.03 0.00 84 1015.2
20260506214108 13 88 1.6 3.2 0.00 0.03 0.00 84 1015.2
20260506213104 13 100 1.6 3.2 0.00 0.03 0.00 83 1015.2
20260506212053 14 113 1.6 3.2 0.00 0.03 0.00 82 1015.2
20260506211043 14 95 1.6 3.2 0.00 0.03 0.00 81 1015.3
20260506210040 14 90 1.6 3.2 0.00 0.03 0.00 81 1015.2
20260506205031 14 105 1.6 3.2 0.00 0.03 0.00 80 1015.4
20260506204019 14 87 1.6 3.2 0.00 0.03 0.00 80 1015.3
20260506203016 14 120 3.2 3.2 0.00 0.03 0.00 80 1015.3
20260506202106 14 113 1.6 3.2 0.00 0.03 0.00 80 1015.2
20260506201057 14 94 1.6 3.2 0.00 0.03 0.00 80 1015.1
20260506200112 14 83 1.6 3.2 0.00 0.03 0.00 80 1015.1
20260506195041 14 117 1.6 3.2 0.00 0.03 0.00 80 1015.1
20260506194031 14 125 3.2 6.4 0.00 0.03 0.00 80 1015.0
20260506193027 14 132 3.2 6.4 0.00 0.03 0.00 79 1014.9
20260506192017 15 109 3.2 6.4 0.00 0.03 0.00 79 1014.8
20260506191108 15 107 3.2 6.4 0.00 0.03 0.00 79 1015.0
20260506190105 15 131 1.6 6.4 0.00 0.03 0.00 78 1014.8
20260506185055 15 118 3.2 6.4 0.00 0.03 0.00 77 1014.8
20260506184044 15 135 3.2 6.4 0.00 0.03 0.00 77 1014.7
20260506183039 15 142 1.6 6.4 0.00 0.03 0.00 77 1014.8
20260506182031 15 110 3.2 9.7 0.00 0.03 0.00 77 1015.0
20260506181101 15 133 3.2 6.4 0.00 0.03 0.00 76 1015.0
20260506180015 16 176 1.6 6.4 0.00 0.03 0.00 77 1015.0
20260506175106 16 331 1.6 6.4 0.00 0.03 0.00 77 1015.0
20260506174057 16 56 1.6 6.4 0.00 0.03 0.00 77 1015.0
20260506173052 16 154 3.2 9.7 0.00 0.03 0.00 76 1014.8
20260506172042 16 117 4.8 9.7 0.00 0.03 0.00 76 1014.9
20260506171034 17 313 4.8 11.3 0.00 0.03 0.00 75 1015.0
20260506170028 17 173 3.2 6.4 0.00 0.03 0.00 73 1015.1
20260506164544 18 30 3.2 6.4 0.00 0.03 0.00 72 1015.0
20260506163541 18 252 3.2 6.4 0.00 0.03 0.00 71 1014.9
20260506162530 18 201 1.6 6.4 0.00 0.03 0.00 71 1014.9
20260506161520 17 109 3.2 6.4 0.00 0.03 0.00 71 1014.8
20260506160516 18 5 1.6 3.2 0.00 0.03 0.00 69 1014.9
20260506155610 17 161 3.2 9.7 0.00 0.03 0.00 71 1014.9
20260506154624 18 43 3.2 6.4 0.00 0.03 0.00 69 1014.9
20260506153555 18 211 3.2 6.4 0.00 0.03 0.00 69 1014.9
20260506152544 17 300 1.6 6.4 0.00 0.03 0.00 70 1015.1
20260506151540 17 9 3.2 11.3 0.00 0.03 0.00 70 1015.1
20260506150531 16 237 4.8 11.3 0.00 0.03 0.00 72 1015.2
20260506145522 16 316 8.0 17.7 0.00 0.03 0.00 72 1015.3
20260506144516 16 327 8.0 17.7 0.00 0.03 0.00 74 1015.2
20260506143108 17 310 6.4 14.5 0.00 0.03 0.00 73 1015.3
20260506142124 17 324 6.4 12.9 0.00 0.03 0.00 71 1015.5
20260506141054 16 301 6.4 12.9 0.00 0.03 0.00 72 1015.4
20260506140045 16 303 8.0 20.9 0.00 0.03 0.00 72 1015.4
20260506135040 17 355 4.8 14.5 0.00 0.03 0.00 72 1015.6
20260506134051 16 296 3.2 9.7 0.00 0.03 0.00 73 1015.7
20260506133020 16 313 4.8 12.9 0.00 0.03 0.00 74 1015.8
20260506132016 16 261 4.8 12.9 0.00 0.03 0.00 75 1015.9
20260506131108 16 263 6.4 17.7 0.00 0.03 0.00 76 1015.8
20260506130057 16 34 3.2 9.7 0.00 0.03 0.00 75 1015.6
20260506125053 16 271 4.8 14.5 0.00 0.03 0.00 75 1016.0
20260506124042 16 237 3.2 6.4 0.00 0.03 0.00 71 1015.9
20260506123034 16 296 4.8 11.3 0.00 0.03 0.00 74 1016.0
20260506122028 16 348 6.4 17.7 0.00 0.03 0.00 74 1016.0
20260506120543 16 314 6.4 12.9 0.00 0.03 0.00 73 1016.0
20260506115532 16 307 4.8 11.3 0.00 0.03 0.00 69 1016.0
20260506114528 17 299 3.2 9.7 0.00 0.03 0.00 67 1016.1
20260506113518 16 355 4.8 12.9 0.00 0.03 0.00 69 1016.1
20260506112608 16 12 4.8 12.9 0.00 0.03 0.00 70 1016.1
20260506111604 16 10 4.8 9.7 0.00 0.03 0.00 69 1016.2
20260506110555 16 297 6.4 11.3 0.00 0.03 0.00 72 1016.2
20260506105545 16 307 6.4 12.9 0.00 0.03 0.00 70 1016.3
20260506104541 16 306 3.2 9.7 0.00 0.03 0.00 71 1016.3
20260506103531 16 288 4.8 12.9 0.00 0.03 0.00 68 1016.3
20260506102520 16 328 4.8 11.3 0.00 0.03 0.00 68 1016.4
20260506101516 16 295 4.8 11.3 0.00 0.03 0.00 69 1016.3
20260506100607 16 326 3.2 9.7 0.00 0.03 0.00 69 1016.2
20260506095557 15 258 3.2 6.4 0.00 0.03 0.00 71 1016.3
20260506094554 15 297 4.8 11.3 0.00 0.03 0.00 71 1016.2
20260506093543 15 52 1.6 6.4 0.00 0.03 0.00 73 1016.3
20260506092533 15 333 3.2 9.7 0.00 0.03 0.00 73 1016.3
20260506091530 15 221 1.6 6.4 0.00 0.03 0.00 73 1016.3
20260506090540 15 298 3.2 11.3 0.00 0.03 0.00 74 1016.2